Flag for Denmark Weather past 2 weeks in Aalborg, Denmark

Now
64 °F

Partly sunny.


Feels Like: 64 °F
Forecast: 52 / 66 °F
Wind: 10 mph from Southwest

Location: Aalborg Airport

Current Time: Aug 1, 2015 at 1:50:47 PM

Latest Report: Aug 1, 2015 at 1:20 PM


Visibility: N/A

Pressure: 30.04 "Hg

Humidity: 60%

Dew point: 50 °F

Location of AalborgLocation

Historic Weather in Aalborg — Graph

°F

Aalborg temperature yesterday

Maximum temperature yesterday: 61 °F (at 3:50 PM)
Minimum temperature yesterday: 52 °F (at 11:20 PM)
Average temperature yesterday: 57 °F

Past Weeks' High & Low Weather Summary

 TemperatureHumidityPressure
High70 °F (Jul 22, 1:50 PM)100% (Jul 19, 11:20 PM)30.04 "Hg (Jul 19, 11:20 PM)
Low46 °F (Jul 30, 3:20 AM)35% (Jul 24, 2:50 PM)29.36 "Hg (Jul 28, 8:50 AM)
Average59 °F81%29.70 "Hg
* Reported Jul 17 12:20 PM — Aug 1 12:50 PM, Aalborg, Weather by CustomWeather, © 2015

Note: Actual official high and low records may vary slightly from our data, if they occured in-between our weather recording intervals... More about our weather records

Advertising

Aalborg weather history for previous 24 hours

 ConditionsComfort  
Time TempWeatherWind HumidityBarometerVisibility
12:50 PM
Sat, Aug 1
64 °FScattered clouds.10 mph60%30.04 "HgN/A
12:20 PM63 °FPassing clouds.10 mph59%30.04 "HgN/A
11:50 AM63 °FPassing clouds.10 mph64%30.04 "HgN/A
11:20 AM63 °FPassing clouds.12 mph64%30.04 "HgN/A
10:50 AM63 °FPassing clouds.13 mph68%30.04 "HgN/A
10:20 AM61 °FPassing clouds.10 mph77%30.04 "HgN/A
9:50 AM59 °FPassing clouds.10 mph77%30.01 "HgN/A
9:20 AM59 °FPassing clouds.9 mph77%30.01 "HgN/A
8:50 AM57 °FSunny.9 mph82%30.01 "Hg10 mi
8:20 AM55 °FSunny.8 mph88%30.01 "Hg10 mi
7:50 AM55 °FSunny.10 mph88%30.01 "Hg10 mi
7:20 AM54 °FSunny.9 mph94%30.01 "Hg10 mi
6:50 AM52 °FSunny.8 mph100%30.01 "Hg10 mi
6:20 AM52 °FSunny.9 mph100%30.01 "Hg10 mi
5:50 AM50 °FPassing clouds.10 mph94%30.01 "HgN/A
5:20 AM52 °FPassing clouds.10 mph94%30.01 "HgN/A
4:50 AM54 °FClear.12 mph88%29.98 "Hg10 mi
4:20 AM52 °FClear.12 mph94%29.98 "Hg10 mi
3:50 AM52 °FClear.12 mph94%29.98 "Hg10 mi
3:20 AM52 °FPassing clouds.13 mph94%29.98 "HgN/A
2:50 AM52 °FPassing clouds.9 mph88%29.98 "HgN/A
2:20 AM52 °FPassing clouds.12 mph88%29.98 "HgN/A
1:50 AM52 °FPassing clouds.13 mph88%29.98 "HgN/A
1:20 AM52 °FPassing clouds.12 mph88%29.98 "HgN/A
12:50 AM52 °FPassing clouds.12 mph82%29.98 "HgN/A
12:20 AM52 °FPassing clouds.12 mph88%29.98 "HgN/A
11:50 PM
Fri, Jul 31
52 °FPassing clouds.14 mph82%29.98 "HgN/A
11:20 PM52 °FPassing clouds.14 mph82%29.98 "HgN/A
10:50 PM54 °FPassing clouds.14 mph77%29.98 "HgN/A
10:20 PM54 °FPassing clouds.15 mph77%29.95 "HgN/A
9:50 PM54 °FPassing clouds.14 mph77%29.95 "HgN/A
9:20 PM54 °FSunny.14 mph77%29.95 "Hg10 mi
8:50 PM55 °FScattered clouds.14 mph72%29.95 "HgN/A
8:20 PM57 °FScattered clouds.16 mph67%29.95 "HgN/A
7:50 PM57 °FPartly sunny.17 mph67%29.95 "HgN/A
7:20 PM57 °FPartly sunny.17 mph67%29.95 "HgN/A
6:50 PM57 °FPartly sunny.18 mph67%29.95 "HgN/A
6:20 PM61 °FPartly sunny.18 mph59%29.95 "HgN/A
5:50 PM59 °FPartly sunny.17 mph63%29.95 "HgN/A
5:20 PM59 °FPartly sunny.20 mph63%29.92 "HgN/A
4:50 PM59 °FPartly sunny.17 mph63%29.92 "HgN/A
4:20 PM59 °FPartly sunny.18 mph63%29.92 "HgN/A
3:50 PM61 °FPartly sunny.20 mph59%29.92 "HgN/A
3:20 PM59 °FPartly sunny.18 mph63%29.92 "HgN/A
2:50 PM59 °FPartly sunny.18 mph59%29.89 "HgN/A
2:20 PM59 °FPartly sunny.20 mph63%29.89 "HgN/A
1:50 PM59 °FPartly sunny.21 mph59%29.89 "HgN/A
1:20 PM59 °FPartly sunny.17 mph63%29.86 "HgN/A
Weather by CustomWeather, © 2015

See weather overviewHow to use our weather pages